Temperature
20 21 21 21 20 20 20 20 20 20 20 20 20 20 20 19 19 18 18 17 17 16 16 16 15 15 15 15 14 14 13 13 13 13 12 12 12 12 12 12 11 11 11 11
20 20 20 20 20 20 20 20 20 20 20 21 20 20 19 19 18 18 17 17 16 16 15 15 15 15 15 14 14 14 13 13 13 12 12 12 12 11 11 11 11 11 11 11
18 19 20 19 20 20 20 20 20 19 19 20 19 19 19 18 18 17 17 16 16 15 15 15 15 14 14 14 14 13 13 12 12 12 12 11 11 11 11 11 11 11 11 11
18 18 17 19 20 20 20 20 20 20 19 19 19 19 18 18 17 17 16 16 15 15 15 15 14 14 14 13 13 13 13 12 12 11 11 11 11 11 10 10 10 10 10 10
17 17 18 19 20 20 19 19 19 19 19 18 18 18 18 17 17 16 16 15 15 15 14 14 14 13 13 13 13 12 12 12 11 11 11 10 10 10 10 10 10 10 9 10
17 17 17 18 19 20 19 18 19 19 18 18 18 16 16 16 16 16 15 15 14 14 14 14 13 13 13 12 12 12 11 11 11 10 10 10 10 10 10 9 9 9 9 9
16 16 18 18 19 19 17 17 18 18 18 17 17 16 17 16 16 15 15 14 14 14 13 13 13 13 12 12 12 11 11 11 10 10 10 10 9 9 9 9 9 8 8 8
16 16 16 18 18 17 17 18 18 17 17 16 16 16 16 15 15 15 14 14 13 13 13 13 12 12 12 12 11 11 11 10 10 10 9 9 9 9 8 8 8 8 8 8
17 16 17 17 17 17 17 17 17 17 16 16 15 15 15 14 14 14 13 13 13 12 12 12 12 12 11 11 11 11 10 10 10 10 9 9 9 8 8 8 8 7 7 7
16 17 17 17 16 16 16 16 16 16 15 15 15 14 14 13 13 13 13 12 12 12 12 11 11 11 11 11 10 10 10 10 10 9 9 9 8 8 8 7 7 7 7 7
16 16 16 16 15 15 15 15 15 15 15 14 14 13 13 13 12 12 12 12 12 11 11 11 11 11 11 10 10 10 10 9 9 9 8 8 8 8 7 7 7 7 7 7
14 15 15 15 15 14 14 14 14 14 14 13 13 13 13 12 12 12 12 11 11 11 11 10 10 10 10 10 9 9 9 9 8 8 8 8 7 7 7 7 7 7 7 6
14 14 14 14 14 14 13 13 13 13 13 13 13 12 12 12 12 11 11 11 11 10 10 10 10 9 9 9 9 9 8 8 8 8 7 7 7 7 7 6 6 6 6 6
13 13 13 13 13 13 13 13 12 12 12 12 12 12 12 11 11 11 11 11 10 10 10 9 9 9 9 9 8 8 8 8 8 8 7 7 7 6 6 6 6 6 6 6
13 13 13 13 12 12 12 12 12 12 12 11 11 11 11 11 11 10 10 10 10 9 9 9 9 9 8 8 8 8 8 7 7 7 7 7 6 6 6 5 5 5 5 5
12 12 12 12 12 12 11 11 11 11 11 11 10 10 10 10 10 10 10 9 9 9 9 9 8 8 8 8 8 7 7 7 7 7 6 6 6 6 5 5 5 5 5 5
11 11 11 11 11 11 11 11 10 10 10 10 10 10 9 9 9 9 9 9 9 9 8 8 8 8 8 8 7 7 7 6 6 6 6 6 5 5 5 5 5 4 4 4
11 11 11 11 11 10 10 10 10 10 10 9 9 9 9 9 9 9 9 8 8 8 8 8 8 7 7 7 7 7 6 6 6 5 5 5 5 5 5 4 4 4 4 4
10 10 10 10 10 10 10 9 9 9 9 9 9 9 9 8 8 8 8 8 8 8 8 7 7 7 7 7 6 6 6 6 5 5 5 5 5 4 4 4 4 4 3 3
9 9 9 9 9 9 9 9 9 9 8 8 8 8 8 8 8 7 7 7 7 7 7 7 7 7 7 6 6 6 6 5 5 5 4 4 4 4 4 3 3 3 3 3
9 9 9 8 8 8 8 8 8 8 8 8 8 8 8 7 7 7 7 7 7 7 7 7 6 6 6 6 6 6 5 5 5 4 4 4 4 4 3 3 3 3 2 2
8 8 8 8 8 8 8 8 8 8 8 7 7 7 7 7 7 7 7 7 6 6 6 6 6 6 5 5 5 5 5 4 4 4 4 4 3 3 3 3 2 2 2 2
8 8 8 8 7 7 7 7 7 7 7 7 7 7 6 6 6 6 6 6 6 6 6 6 5 5 5 5 5 4 4 4 4 3 3 3 3 3 2 2 2 2 2 1
7 7 7 7 7 7 7 7 7 6 6 6 6 6 6 6 6 6 6 6 5 5 5 5 5 5 5 4 4 4 4 3 3 3 3 3 3 2 2 2 1 1 1 1
6 6 6 6 6 6 6 6 6 6 6 6 6 5 5 5 5 5 5 5 5 5 5 5 4 4 4 4 4 3 3 3 3 3 2 2 2 2 2 1 1 1 1 0
5 6 6 6 6 5 5 5 5 5 5 5 5 5 5 5 5 5 5 5 4 4 4 4 4 3 3 3 3 3 3 2 2 2 2 2 2 1 1 1 1 1 0 0
5 5 5 5 5 5 5 5 4 4 4 4 4 4 4 4 4 4 4 4 4 4 3 3 3 3 3 2 2 2 2 2 2 2 1 1 1 1 1 1 0 0 -0 -0
Wind_Speed
10 10 9 9 9 9 10 9 9 7 6 2 1 1 2 1 2 2 1 1 1 2 2 3 3 3 3 4 4 4 3 3 2 2 2 1 1 0 1 0 0 1 1 1
11 10 11 11 11 10 11 10 9 8 6 3 3 3 3 2 1 0 0 0 0 1 1 2 2 2 2 3 4 4 4 3 3 2 2 1 1 0 0 0 0 0 0 1
9 8 10 10 7 7 6 6 6 7 5 3 3 3 2 1 1 0 1 1 1 1 1 1 1 1 1 2 2 3 4 3 3 3 2 1 1 1 0 0 0 0 0 0
7 7 8 4 2 3 5 5 4 4 4 4 4 4 3 1 1 0 0 1 1 1 1 1 1 2 2 1 2 2 3 4 3 2 2 2 1 1 1 0 0 0 1 1
5 7 8 4 1 2 4 5 2 3 4 5 5 4 3 4 2 1 0 0 1 1 1 1 2 2 2 1 1 2 3 3 3 3 3 2 2 1 1 0 0 1 1 1
5 6 6 2 2 3 4 3 3 3 3 4 4 4 3 3 4 2 1 1 1 0 1 1 1 2 2 2 2 2 2 2 2 2 2 2 2 1 0 0 1 1 1 1
7 7 4 1 3 3 3 2 3 4 3 3 4 4 3 2 2 2 1 1 1 0 0 0 1 2 2 2 2 2 2 2 2 2 2 2 2 1 0 0 0 1 1 1
5 6 4 2 2 2 4 4 4 4 3 4 4 4 4 3 2 1 1 1 1 0 0 1 1 1 1 1 1 3 3 2 2 2 2 2 2 1 0 0 1 1 1 1
3 3 2 3 3 5 6 6 6 5 5 4 4 4 4 4 2 1 1 1 1 1 1 1 2 2 1 0 2 2 3 2 2 2 2 2 2 2 1 1 1 1 1 1
4 3 3 3 4 5 5 6 7 7 6 4 4 4 4 3 3 2 2 2 2 1 1 1 1 1 1 1 2 2 2 2 1 2 2 1 1 1 1 1 1 1 1 1
5 4 4 3 5 5 5 6 8 7 6 5 5 4 4 3 3 2 2 2 2 2 2 2 1 2 2 3 2 2 2 2 2 2 2 1 1 1 2 2 2 2 1 1
5 5 4 5 5 6 6 6 7 6 6 6 5 5 4 3 2 3 3 2 2 1 2 2 2 2 2 2 3 2 2 2 2 2 2 2 2 1 1 2 4 4 3 2
6 7 5 6 6 6 6 6 6 6 5 6 5 4 4 3 2 2 3 2 2 2 2 2 1 2 2 2 2 2 2 2 2 2 2 2 2 2 2 2 3 4 5 5
6 6 6 5 6 6 6 6 6 6 5 5 5 5 4 3 3 2 2 2 2 1 2 2 2 1 1 2 2 2 2 2 2 2 2 2 2 2 2 2 2 2 4 6
7 6 6 6 6 6 6 6 6 6 6 5 5 4 4 4 3 2 2 1 1 1 1 2 2 2 2 2 3 3 2 2 1 1 1 1 1 1 2 2 2 1 1 2
6 6 6 5 5 6 5 6 6 6 5 5 5 5 5 4 3 2 1 1 1 2 2 2 2 2 2 2 2 2 2 2 2 1 1 1 1 1 1 1 1 2 2 1
5 6 6 5 5 6 5 5 6 6 6 5 5 5 5 4 3 2 2 2 2 2 1 1 1 1 2 2 2 2 2 2 3 2 1 1 1 1 1 1 1 1 1 1
5 6 5 5 5 5 5 5 5 6 6 5 5 4 4 3 3 2 2 1 0 1 0 1 1 1 1 1 1 1 1 1 2 2 2 1 1 1 0 1 1 1 1 1
5 6 6 6 6 6 5 5 5 5 5 5 4 4 4 3 3 2 2 1 1 1 1 1 1 1 2 2 1 1 1 1 1 1 1 1 1 0 0 1 1 1 1 1
5 6 6 6 6 6 6 5 5 5 4 4 4 4 4 3 2 2 1 1 1 1 1 2 2 2 2 2 1 1 1 1 1 1 1 1 1 0 0 1 1 1 1 1
6 6 6 6 6 5 5 5 5 5 4 3 3 4 4 3 2 1 1 1 1 1 2 2 2 1 1 1 2 1 1 1 1 1 1 1 1 1 0 1 1 1 1 1
5 5 6 6 5 5 5 4 4 4 4 4 3 3 3 3 2 1 1 1 0 2 2 1 1 1 1 1 1 1 1 1 1 1 1 1 1 1 0 0 0 1 1 1
5 5 6 5 5 5 5 4 4 4 3 3 3 3 3 2 1 1 1 0 1 1 1 1 1 2 2 1 1 1 1 1 1 1 1 1 1 1 0 0 0 1 1 1
6 5 5 5 5 5 5 4 4 3 3 3 3 2 2 1 1 1 1 1 1 1 1 2 2 2 2 1 1 1 1 1 1 1 1 1 1 1 0 0 0 1 1 1
6 5 5 5 4 4 4 4 4 3 3 2 2 2 2 1 0 1 1 1 1 2 1 1 2 2 2 1 1 1 1 1 1 1 1 1 1 1 1 0 0 1 1 1
6 5 4 4 4 3 3 2 2 2 2 2 2 1 2 1 1 1 1 1 2 2 2 1 1 1 1 1 1 1 1 1 1 1 1 1 1 1 1 0 0 1 1 1
5 4 3 3 3 3 3 2 2 2 2 2 2 1 1 1 1 1 1 1 1 1 1 1 1 1 1 1 1 1 1 1 1 1 1 1 1 1 1 0 0 1 1 1
Wind_Direction
272 280 273 261 257 255 256 264 270 282 293 315 27 23 17 51 79 70 68 74 113 158 177 185 188 192 173 160 159 164 168 163 148 133 119 97 76 47 87 107 234 177 173 146
271 267 270 266 254 249 253 262 272 286 296 1 3 13 3 26 82 100 290 293 147 192 177 199 198 185 166 167 168 169 163 148 139 135 129 123 115 86 328 201 220 59 298 140
271 269 269 257 251 244 257 268 274 282 303 346 346 352 327 319 253 240 286 305 271 260 232 238 221 166 132 151 155 156 143 135 136 138 144 144 131 105 237 266 12 25 268 232
267 273 253 247 288 281 266 272 288 306 342 357 342 327 316 342 89 299 357 326 269 259 255 239 137 116 117 123 151 148 143 148 153 156 156 159 156 165 203 198 94 281 280 299
255 263 262 265 283 302 277 273 316 324 338 345 346 330 328 32 21 290 183 343 306 306 322 70 93 120 127 123 144 154 144 145 154 162 164 172 183 188 153 357 285 267 251 264
251 259 265 283 18 350 295 261 23 357 333 334 333 311 320 356 355 357 52 30 321 333 60 95 107 124 136 153 152 148 136 137 147 162 171 174 162 156 157 189 245 264 267 252
249 257 260 359 10 326 265 307 359 345 341 331 306 302 317 335 344 351 32 21 347 23 102 172 140 139 174 184 181 148 125 124 132 146 159 155 134 130 156 205 270 274 267 278
238 248 248 31 7 328 338 356 353 349 344 323 318 334 345 350 351 3 351 348 346 47 234 124 115 135 215 219 150 123 126 136 151 136 158 162 138 149 161 260 259 261 279 315
247 254 345 12 348 350 352 341 346 342 339 333 325 326 330 332 330 328 315 307 297 254 222 175 166 184 208 173 116 124 139 149 161 144 126 148 158 165 178 219 235 251 262 266
270 282 323 348 345 352 351 338 335 336 335 327 320 320 318 315 312 299 289 284 269 230 208 234 210 162 137 127 133 155 168 171 167 143 129 119 161 164 174 193 215 253 258 258
270 294 312 345 352 349 340 332 326 328 328 332 325 312 306 301 301 296 287 280 257 231 225 227 209 158 152 154 170 187 187 180 166 144 145 172 169 193 190 194 187 204 238 243
287 311 314 325 335 337 331 327 327 328 329 326 318 305 299 294 292 287 276 267 247 242 236 227 206 171 165 169 181 190 195 189 171 161 175 190 186 222 232 209 191 189 195 214
300 317 316 316 327 334 328 329 331 325 320 318 320 316 308 306 292 278 273 269 247 225 216 218 191 182 179 183 195 205 208 194 178 181 189 201 197 198 235 259 222 213 216 223
313 314 305 312 319 323 324 324 323 322 318 319 322 319 312 308 300 286 276 272 257 207 193 188 187 201 199 194 202 215 211 188 186 187 191 194 199 211 219 225 236 245 231 228
305 307 304 312 314 318 325 327 325 324 328 332 333 333 331 322 307 291 285 284 249 198 207 204 199 211 208 201 204 207 194 180 178 178 176 175 191 221 228 235 234 232 243 228
299 298 299 303 309 316 320 321 318 318 324 328 330 329 321 315 309 307 299 242 216 218 219 215 213 216 197 192 202 195 175 164 165 178 184 186 200 216 230 236 233 239 241 233
290 292 295 300 306 310 318 324 321 318 321 322 320 317 317 317 313 307 296 278 248 237 213 191 194 202 182 175 179 174 163 174 185 190 184 185 216 227 228 256 268 267 268 245
307 304 303 300 302 307 313 314 313 315 316 313 316 316 312 306 301 297 301 305 314 302 237 141 138 174 149 141 151 154 156 165 180 185 176 181 211 216 198 267 275 278 290 287
311 312 313 310 311 311 309 306 308 309 311 314 314 309 304 300 298 295 299 269 208 230 237 137 150 172 153 137 141 161 174 181 188 185 163 156 169 186 199 251 269 282 290 314
302 304 305 301 300 299 301 303 301 297 301 310 309 309 307 306 307 288 273 262 229 212 166 157 179 180 160 147 125 155 163 168 178 175 157 159 172 215 255 276 297 312 325 348
298 298 298 298 296 296 297 297 296 294 299 304 300 297 298 299 289 262 253 273 300 98 137 159 163 151 148 141 147 165 167 164 175 186 188 188 178 185 248 298 321 330 336 345
302 302 302 302 301 301 302 303 302 302 303 304 301 300 300 292 288 276 267 258 191 118 135 164 156 132 135 127 151 161 158 159 182 185 187 182 174 187 213 265 287 298 310 323
300 300 301 301 299 298 297 302 303 303 302 302 303 299 291 279 257 241 264 301 126 115 121 143 131 137 138 129 156 170 173 178 187 183 185 178 164 166 193 261 297 326 345 351
305 302 304 308 310 311 310 316 317 312 309 302 300 302 293 278 292 341 22 63 83 105 117 141 138 147 140 142 171 175 166 174 182 170 157 143 133 132 122 18 10 6 2 350
317 316 314 315 314 315 318 325 329 329 328 328 341 347 346 355 30 38 77 115 93 86 96 132 136 135 136 145 154 141 110 96 87 80 84 93 109 108 95 61 351 347 338 331
320 317 316 315 313 318 321 322 320 320 325 328 334 355 13 24 47 60 99 114 108 91 91 115 127 122 100 98 90 78 75 70 69 81 97 95 96 92 100 92 345 330 323 331
313 313 316 321 324 325 321 321 323 319 317 314 314 344 9 20 47 53 66 100 127 119 110 114 118 105 80 87 92 90 87 86 91 84 82 85 91 93 84 66 344 313 320 316
Height
1494 1491 1491 1493 1494 1494 1496 1497 1501 1496 1494 1492 1492 1493 1494 1495 1497 1498 1500 1501 1502 1503 1504 1505 1506 1506 1506 1507 1507 1508 1509 1509 1510 1510 1510 1511 1511 1512 1512 1513 1514 1514 1515 1515
1495 1490 1490 1491 1489 1490 1491 1491 1492 1491 1492 1490 1490 1492 1493 1494 1496 1497 1499 1500 1501 1501 1502 1503 1503 1503 1504 1505 1505 1506 1507 1507 1508 1508 1508 1509 1509 1509 1510 1510 1511 1512 1512 1513
1499 1492 1491 1494 1487 1486 1488 1487 1490 1493 1493 1489 1490 1492 1493 1494 1495 1496 1497 1498 1499 1500 1500 1501 1501 1501 1502 1503 1503 1504 1505 1505 1505 1506 1506 1506 1507 1507 1507 1507 1508 1509 1509 1510
1498 1498 1505 1491 1481 1482 1485 1486 1487 1488 1489 1490 1491 1491 1492 1492 1493 1494 1495 1496 1497 1498 1498 1498 1499 1499 1500 1501 1501 1501 1502 1502 1503 1503 1504 1504 1504 1504 1505 1505 1505 1505 1506 1507
1500 1502 1495 1487 1482 1483 1486 1487 1486 1487 1488 1489 1489 1490 1490 1491 1491 1491 1492 1494 1495 1495 1496 1496 1497 1497 1497 1498 1499 1499 1499 1500 1500 1501 1501 1502 1502 1502 1502 1502 1502 1503 1503 1503
1498 1502 1502 1491 1483 1482 1485 1489 1485 1486 1487 1488 1489 1491 1491 1490 1490 1490 1491 1492 1492 1492 1493 1493 1494 1495 1495 1495 1496 1496 1497 1497 1498 1498 1499 1499 1499 1499 1500 1500 1500 1500 1500 1501
1498 1499 1492 1486 1484 1484 1494 1493 1486 1486 1487 1487 1488 1490 1489 1488 1488 1489 1489 1489 1490 1490 1490 1491 1491 1492 1492 1493 1493 1494 1494 1495 1495 1496 1496 1496 1497 1497 1497 1497 1497 1497 1498 1498
1495 1500 1497 1486 1485 1488 1489 1486 1485 1486 1486 1486 1487 1487 1486 1486 1486 1486 1487 1487 1487 1488 1488 1488 1488 1489 1489 1490 1490 1491 1491 1492 1493 1493 1493 1494 1494 1494 1495 1495 1495 1495 1494 1494
1490 1492 1487 1486 1487 1487 1487 1486 1486 1486 1485 1485 1485 1485 1485 1484 1484 1484 1484 1484 1484 1485 1485 1485 1486 1486 1487 1487 1487 1488 1489 1489 1490 1490 1490 1491 1491 1491 1492 1492 1492 1492 1492 1492
1487 1486 1485 1486 1486 1486 1486 1486 1486 1485 1484 1484 1483 1483 1483 1482 1482 1481 1481 1481 1482 1482 1482 1482 1483 1483 1484 1484 1485 1485 1486 1486 1487 1487 1487 1488 1488 1489 1489 1489 1489 1489 1489 1489
1485 1485 1485 1485 1486 1486 1485 1485 1484 1483 1483 1482 1481 1481 1480 1479 1479 1478 1478 1478 1479 1479 1479 1479 1480 1480 1481 1481 1482 1482 1483 1483 1484 1484 1484 1484 1485 1486 1486 1486 1486 1486 1486 1486
1488 1486 1486 1486 1485 1485 1484 1483 1482 1481 1480 1480 1479 1478 1477 1476 1476 1475 1475 1476 1475 1475 1476 1476 1476 1476 1477 1478 1478 1479 1479 1480 1480 1481 1481 1481 1482 1482 1483 1484 1484 1484 1484 1484
1486 1485 1485 1484 1484 1483 1482 1481 1480 1480 1479 1477 1477 1476 1475 1474 1473 1473 1473 1473 1472 1472 1473 1473 1473 1473 1473 1474 1475 1476 1476 1477 1477 1477 1478 1478 1479 1479 1479 1480 1480 1480 1480 1480
1484 1484 1483 1482 1482 1481 1481 1479 1479 1477 1476 1475 1474 1473 1472 1471 1471 1470 1469 1469 1470 1470 1470 1470 1470 1470 1471 1472 1472 1473 1473 1474 1474 1474 1475 1475 1476 1476 1476 1476 1477 1476 1477 1477
1483 1482 1482 1480 1480 1479 1478 1478 1476 1475 1474 1473 1472 1471 1470 1469 1468 1467 1466 1466 1467 1467 1467 1467 1467 1467 1468 1468 1469 1469 1470 1470 1471 1471 1472 1472 1473 1473 1473 1473 1473 1473 1473 1473
1481 1480 1479 1479 1478 1477 1476 1476 1475 1473 1472 1471 1469 1468 1467 1466 1465 1464 1464 1464 1463 1463 1463 1464 1464 1464 1464 1465 1465 1466 1466 1467 1468 1468 1469 1469 1469 1470 1470 1470 1470 1470 1470 1469
1478 1477 1476 1476 1476 1475 1474 1474 1473 1471 1470 1468 1467 1466 1464 1463 1462 1461 1461 1460 1460 1460 1460 1461 1461 1461 1461 1462 1462 1463 1463 1464 1464 1465 1465 1466 1466 1466 1466 1466 1466 1466 1466 1466
1476 1475 1474 1474 1473 1472 1472 1471 1470 1469 1468 1466 1465 1463 1462 1460 1459 1458 1458 1457 1457 1457 1457 1457 1457 1458 1458 1459 1459 1460 1460 1461 1461 1462 1462 1463 1463 1463 1463 1463 1463 1462 1462 1462
1473 1472 1472 1471 1471 1470 1469 1468 1467 1466 1465 1463 1462 1460 1459 1458 1457 1456 1455 1454 1454 1454 1454 1454 1455 1455 1455 1456 1456 1457 1457 1458 1458 1459 1460 1460 1460 1460 1460 1460 1460 1459 1459 1458
1470 1470 1469 1468 1468 1467 1466 1465 1464 1463 1462 1460 1459 1457 1456 1455 1454 1453 1453 1452 1452 1451 1451 1452 1452 1452 1453 1453 1454 1454 1455 1455 1455 1456 1456 1457 1457 1457 1457 1457 1456 1456 1455 1455
1467 1467 1466 1465 1464 1463 1462 1461 1460 1459 1458 1457 1456 1454 1453 1452 1451 1451 1450 1449 1449 1449 1449 1449 1449 1450 1450 1450 1451 1451 1452 1452 1453 1453 1454 1454 1454 1454 1454 1454 1453 1453 1452 1452
1465 1464 1463 1462 1461 1460 1459 1458 1456 1455 1454 1453 1452 1451 1450 1449 1448 1448 1447 1447 1447 1447 1447 1447 1447 1447 1448 1448 1448 1449 1449 1450 1450 1451 1451 1451 1451 1451 1451 1451 1450 1450 1449 1449
1462 1461 1460 1459 1458 1456 1455 1454 1453 1452 1451 1450 1449 1448 1447 1446 1445 1445 1444 1445 1444 1444 1444 1444 1445 1445 1445 1446 1446 1446 1447 1447 1448 1448 1448 1449 1448 1448 1448 1448 1448 1447 1446 1446
1459 1458 1457 1455 1454 1453 1452 1450 1450 1449 1448 1447 1446 1445 1444 1443 1443 1443 1442 1442 1442 1442 1442 1442 1443 1443 1443 1443 1444 1444 1444 1445 1445 1446 1446 1446 1446 1446 1445 1445 1445 1444 1443 1442
1456 1455 1454 1452 1451 1450 1449 1448 1447 1446 1445 1444 1443 1442 1441 1441 1441 1440 1440 1440 1440 1440 1440 1440 1440 1441 1441 1441 1442 1442 1442 1443 1443 1443 1443 1443 1443 1443 1443 1442 1441 1441 1440 1439
1454 1452 1451 1450 1449 1448 1447 1445 1444 1443 1442 1441 1440 1440 1439 1439 1439 1438 1438 1438 1438 1438 1437 1438 1438 1438 1439 1439 1439 1440 1440 1440 1441 1441 1441 1441 1440 1440 1440 1439 1439 1438 1437 1436
1451 1450 1449 1448 1446 1445 1444 1443 1442 1441 1440 1439 1438 1438 1437 1437 1436 1436 1435 1435 1435 1435 1435 1436 1436 1436 1437 1437 1437 1437 1438 1438 1438 1438 1438 1438 1438 1437 1437 1436 1436 1435 1434 1433